User: anonymous   Login
Location: Unspecified
(51.0000°N, 12.0000°E)
Time: 15:59:20
(UTC+01:00)
Language:

N. Korean satellite - Orbit

View from above orbital plane
View from above orbital plane
View from above satellite
View from above satellite

Ground track
Ground track

The orbit data is extracted from the following two-line orbital elements,

1 39026U 12072A   19320.94272770 +.00001395 +00000-0 +52571-4 0  9997
2 39026 097.2158 319.2601 0036003 284.3474 075.3770 15.28173362384631
Epoch (UTC): 16 November 2019 22:37:31
Eccentricity: 0.0036003
inclination: 97.2158°
perigee height: 456 km
apogee height: 506 km
right ascension of ascending node: 319.2601°
argument of perigee: 284.3474°
revolutions per day: 15.28173362
mean anomaly at epoch: 75.3770°
orbit number at epoch: 38463

The dashed part of the orbit path shows where the satellite is in the earth's shadow,  

DLR